Header for Extended Forecast Station List Page

Search by: ID | Name | Date | Parm | Value | Avg | % Avg
Sort by: ID | Name | Date | Parm | Value | Avg | % Avg

Enter search or view all records.

Click on id for station plot
#IDNameDateParmValueAvg% Avg
0LYDM8KOOTENAI-LIBBY DAM03-04-2024INFLOW (KAF)3668433985
1LEOI1KOOTENAI-AT LEONIA03-04-2024DISCHARGE (KAF)37883714102
2BFEI1KOOTENAI-AT BONNERS FERRY03-04-2024STAGE (FT)MMM
3FCFM8NF FLATHEAD-NEAR COLUMBIA FALLS03-04-2024DISCHARGE (KAF)991133274
4WGCM8MF FLATHEAD-NEAR WEST GLACIER03-04-2024DISCHARGE (KAF)1032128380
5HHWM8SF FLATHEAD-HUNGRY HORSE DAM03-04-2024INFLOW (KAF)1410168484
6CFMM8FLATHEAD-AT COLUMBIA FALLS03-04-2024DISCHARGE (KAF)2967364581
7DLGM8CLARK FORK-AT DEER LODGE03-04-2024DISCHARGE (KAF)658082
8DRMM8CLARK FORK-NR DRUMMOND03-04-2024DISCHARGE (KAF)19522786
9RCCM8ROCK CREEK-NEAR CLINTON03-04-2024DISCHARGE (KAF)15921873
10BONM8BLACKFOOT-NEAR BONNER03-04-2024DISCHARGE (KAF)44767366
11ABOM8CLARK FORK-ABOVE MISSOULA03-04-2024DISCHARGE (KAF)833118670
12BITM8BITTERROOT-NEAR MISSOULA03-04-2024DISCHARGE (KAF)815102579
13BELM8CLARK FORK-BELOW MISSOULA03-04-2024DISCHARGE (KAF)1648225773
14STRM8ST. REGIS-NEAR ST. REGIS03-04-2024DISCHARGE (KAF)23724697
15SRGM8CLARK FORK-AT ST REGIS03-04-2024DISCHARGE (KAF)2217298374
16KERM8FLATHEAD-SELI’Š KSANKA QLISPE’ DAM03-04-2024INFLOW (KAF)3558450579
17NOXM8CLARK FORK-NOXON RAPIDS DAM03-04-2024INFLOW (KAF)5398742373
18CABI1CLARK FORK-CABINET GORGE DAM03-04-2024INFLOW (KAF)5961826872
19PRTI1PRIEST-NEAR PRIEST RIVER03-04-2024DISCHARGE (KAF)886754117
20ALFW1PEND OREILLE-ALBENI FALLS DAM03-04-2024INFLOW (KAF)7634958480
21HOPI1PEND OREILLE-LAKE PEND OREILLE NR HOPE03-04-2024LAKE ELEVATION (FT)MMM
22COEI1COEUR D ALENE-COEUR D ALENE LAKE03-04-2024INFLOW (KAF)2398257993
23SPOW1SPOKANE-AT SPOKANE03-04-2024DISCHARGE (KAF)2322261389
24LLKW1SPOKANE-AT LONGLAKE03-04-2024INFLOW (KAF)2624292590
25SATI1ST MARIES-NEAR SANTA03-04-2024DISCHARGE (KAF)145133109
26SJMI1ST JOE-AT ST MARIES03-04-2024STAGE (FT)MMM
27CIBW1COLUMBIA-AT INTL BOUNDARY03-04-2024DISCHARGE (KAF)204772605979
28LAUW1KETTLE-AT LAURIER03-04-2024DISCHARGE (KAF)17651656107
29GCDW1COLUMBIA-GRAND COULEE DAM03-04-2024INFLOW (KAF)250142944785
30CHJW1COLUMBIA-CHIEF JOSEPH DAM03-04-2024INFLOW (KAF)237642885782
31TONW1OKANOGAN-NEAR TONASKET03-04-2024DISCHARGE (KAF)921133969
32PATW1METHOW-NEAR PATEROS03-04-2024DISCHARGE (KAF)57374477
33WELW1COLUMBIA-WELLS DAM03-04-2024INFLOW (KAF)252513114581
34CHDW1CHELAN-LAKE CHELAN DAM03-04-2024INFLOW (KAF)59984171
35RRHW1COLUMBIA-ROCKY REACH DAM03-04-2024INFLOW (KAF)257093199380
36ARDW1ENTIAT-NEAR ARDENVOIR03-04-2024DISCHARGE (KAF)14916292
37PESW1WENATCHEE-AT PESHASTIN03-04-2024DISCHARGE (KAF)1047119588
38WANW1COLUMBIA-WANAPUM DAM03-04-2024INFLOW (KAF)267553340780
39PRWW1COLUMBIA-PRIEST RAPIDS DAM03-04-2024INFLOW (KAF)267493346080
40KEDW1YAKIMA-KEECHELUS LAKE03-04-2024INFLOW (KAF)10310895
41KADW1KACHESS-KACHESS DAM03-04-2024INFLOW (KAF)9610095
42EASW1YAKIMA-AT EASTON03-04-2024DISCHARGE (KAF)879889
43CLUW1CLE ELUM-CLE ELUM LAKE03-04-2024INFLOW (KAF)358336107
44TNAW1TEANAWAY-BELOW FORKS03-04-2024DISCHARGE (KAF)145132110
45UMTW1YAKIMA-AT UMTANUM03-04-2024DISCHARGE (KAF)63767395
46BUDW1BUMPING-BUMPING LAKE DAM03-04-2024INFLOW (KAF)111100111
47CLFW1NACHES-NEAR CLIFFDEL03-04-2024DISCHARGE (KAF)347347100
48RILW1TIETON-RIMROCK LAKE NEAR RIMROCK03-04-2024INFLOW (KAF)16116796
49NACW1NACHES-NEAR NACHES03-04-2024DISCHARGE (KAF)51051699
50PARW1YAKIMA-NEAR PARKER03-04-2024DISCHARGE (KAF)52866679
51KIOW1YAKIMA-AT KIONA03-04-2024DISCHARGE (KAF)845100584
52IPDI1HENRYS FORK-ISLAND PARK DAM03-04-2024INFLOW (KAF)16817099
53CHEI1FALL RIVER-NEAR CHESTER03-04-2024DISCHARGE (KAF)363311116
54ANTI1HENRYS FORK-AT ST. ANTHONY03-04-2024DISCHARGE (KAF)657593111
55TEAI1TETON-NEAR ST. ANTHONY03-04-2024DISCHARGE (KAF)388304128
56REXI1HENRYS FORK-AT REXBURG03-04-2024DISCHARGE (KAF)834697120
57JLKW4SNAKE-JACKSON LAKE AT DAM03-04-2024INFLOW (KAF)704627112
58JKSW4SNAKE-NEAR JACKSON03-04-2024DISCHARGE (KAF)12671205105
59ALPW4SNAKE-NEAR ALPINE03-04-2024DISCHARGE (KAF)16091549104
60PLDI1SF SNAKE-PALISADES DAM03-04-2024INFLOW (KAF)25202261111
61HEII1SNAKE-NEAR HEISE03-04-2024DISCHARGE (KAF)26612110126
62RIDI1WILLOW CREEK-RIRIE DAM03-04-2024INFLOW (KAF)11539291
63SIFI1SNAKE-AB EAGLE ROCK NR IDAHO FALLS03-04-2024DISCHARGE (KAF)26331728152
64SHYI1SNAKE-NEAR SHELLEY03-04-2024DISCHARGE (KAF)25081602157
65SNAI1SNAKE-AT BLACKFOOT03-04-2024DISCHARGE (KAF)21461127190
66BFTI1SNAKE-NEAR BLACKFOOT03-04-2024DISCHARGE (KAF)21081112190
67PIHI1PORTNEUF-AT POCATELLO03-04-2024DISCHARGE (KAF)16069230
68AFRI1SNAKE-AMERICAN FALLS RESERVOIR03-04-2024INFLOW (KAF)28291749162
69MILI1SNAKE-AT MILNER03-04-2024DISCHARGE (KAF)M54M
70HOTI1BRUNEAU-NEAR HOT SPRINGS03-04-2024DISCHARGE (KAF)293153191
71SWAI1SNAKE-BELOW SWAN FALLS03-04-2024DISCHARGE (KAF)19571854106
72HWRI1BIG LOST-AT HOWELL RANCH NEAR CHILLY03-04-2024DISCHARGE (KAF)152110138
73MACI1BIG LOST-MACKAY RESERVOIR NEAR MACKAY03-04-2024INFLOW (KAF)13279168
74HALI1BIG WOOD-AT HAILEY03-04-2024DISCHARGE (KAF)202172118
75MAGI1BIG WOOD-MAGIC DAM03-04-2024INFLOW (KAF)223166135
76LWRI1LITTLE WOOD-LITTLE WOOD DAM03-04-2024INFLOW (KAF)7455136
77OWYO3OWYHEE-OWYHEE DAM03-04-2024INFLOW (KAF)581261223
78ARAI1SF BOISE-ANDERSON RANCH DAM03-04-2024INFLOW (KAF)488392124
79LUCI1BOISE-LUCKY PEAK DAM03-04-2024INFLOW (KAF)1200983122
80BIGI1BOISE-AT GLENWOOD BRIDGE03-04-2024DISCHARGE (KAF)508235216
81PARI1BOISE-NEAR PARMA03-04-2024DISCHARGE (KAF)524257204
82WRMO3MALHEUR-WARM SPRINGS DAM03-04-2024INFLOW (KAF)13476177
83BERO3MALHEUR-AGENCY VALLEY DAM03-04-2024INFLOW (KAF)7251140
84BULO3BULLY CREEK-BULLY CREEK DAM03-04-2024INFLOW (KAF)274707
85CSDI1NF PAYETTE-CASCADE DAM03-04-2024INFLOW (KAF)40245489
86DEDI1DEADWOOD-NEAR LOWMAN03-04-2024INFLOW (KAF)121108113
87EMMI1PAYETTE-NEAR EMMETT03-04-2024DISCHARGE (KAF)1036113292
88WSRI1WEISER-NEAR WEISER03-04-2024DISCHARGE (KAF)413405102
89WEII1SNAKE-AT WEISER03-04-2024DISCHARGE (KAF)44583985112
90BRNI1SNAKE-BROWNLEE DAM03-04-2024INFLOW (KAF)50324468113
91WHBI1SALMON-AT WHITEBIRD03-04-2024DISCHARGE (KAF)4424489890
92TRYO3GRANDE RONDE-TROY03-04-2024DISCHARGE (KAF)13311319101
93ANAW1SNAKE-NEAR ANATONE03-04-2024DISCHARGE (KAF)106491195589
94ORFI1CLEARWATER-AT OROFINO03-04-2024DISCHARGE (KAF)3811418591
95DWRI1NF CLEARWATER-DWORSHAK DAM03-04-2024INFLOW (KAF)2193247489
96SPDI1CLEARWATER-AT SPALDING03-04-2024DISCHARGE (KAF)5158606585
97LGDW1SNAKE-LOWER GRANITE DAM03-04-2024INFLOW (KAF)158081858985
98LGSW1SNAKE-LITTLE GOOSE DAM03-04-2024INFLOW (KAF)158081862185
99LMNW1SNAKE-LOWER MONUMENTAL DAM03-04-2024INFLOW (KAF)159441872685
100IHDW1SNAKE-ICE HARBOR DAM03-04-2024INFLOW (KAF)159441873085
101TCHW1WALLA WALLA-NEAR TOUCHET03-04-2024DISCHARGE (KAF)182180101
102MCDW1COLUMBIA-MCNARY DAM03-04-2024INFLOW (KAF)436255365381
103GIBO3UMATILLA-NEAR GIBBON03-04-2024DISCHARGE (KAF)9083108
104PDTO3UMATILLA-AT PENDLETON03-04-2024DISCHARGE (KAF)193173111
105MYKO3MCKAY CREEK-NEAR PILOT ROCK03-04-2024DISCHARGE (KAF)3635105
106UMAO3UMATILLA-NEAR UMATILLA03-04-2024DISCHARGE (KAF)164156105
107MONO3NF JOHN DAY-AT MONUMENT03-04-2024DISCHARGE (KAF)732589124
108SERO3JOHN DAY-AT SERVICE CK03-04-2024DISCHARGE (KAF)1079841128
109JDAO3COLUMBIA-JOHN DAY DAM03-04-2024INFLOW (KAF)461625538483
110MODO3DESCHUTES-AT MOODY NR BIGGS03-04-2024DISCHARGE (KAF)14501387104
111TDAO3COLUMBIA-THE DALLES DAM03-04-2024INFLOW (KAF)466195579384
112PITW1KLICKITAT-NEAR PITT03-04-2024DISCHARGE (KAF)566490116
113HODO3HOOD-NEAR TUCKER BRIDGE03-04-2024DISCHARGE (KAF)298244122
114UNDW1WHITE SALMON-NEAR UNDERWOOD03-04-2024DISCHARGE (KAF)352329107
115BONO3COLUMBIA-BONNEVILLE DAM03-04-2024INFLOW (KAF)478285791283